Regional Weather Roundup
Issued by NWS Cleveland, OH

Home | Current Version | Previous Version | Graphics & Text | Print | Product List | Glossary On
Versions: 1 2 3 4 5 6 7 8 9 10 11 12 13 14 15 16 17 18 19 20 21 22 23 24 25 26 27 28 29 30 31 32 33 34 35 36 37 38 39 40 41 42 43 44 45 46 47 48 49 50
000
ASUS41 KCLE 250302
RWRCLE
OHIO REGIONAL WEATHER ROUNDUP
NATIONAL WEATHER SERVICE CLEVELAND, OH
1100 PM EDT WED AUG 24 2016

NOTE: "FAIR" INDICATES FEW OR NO CLOUDS BELOW 12,000 FEET WITH NO
SIGNIFICANT WEATHER AND/OR OBSTRUCTIONS TO VISIBILITY.

OHZ001>008-015>018-024>027-034-035-043-044-250400-
   NORTHWEST OHIO

CITY           SKY/WX    TMP DP  RH WIND       PRES   REMARKS
DEFIANCE       CLEAR     74  71  91 SW6       29.99R
FINDLAY        CLOUDY    76  72  87 W6        29.98F
TOLEDO EXPRESS CLOUDY    72  72 100 SW8       29.97R
TOLEDO EXEC    CLOUDY    74  73  97 SW14      29.97R
LIMA           LGT RAIN  74  74 100 SW13      30.01F
$$

OHZ009>014-019>023-028>033-038-089-250400-
   NORTHEAST OHIO

CITY           SKY/WX    TMP DP  RH WIND       PRES   REMARKS
CLE-HOPKINS    CLOUDY    81  67  62 S14G24    30.02F
CLE-LAKEFRONT  CLOUDY    82  67  60 S14G24    29.99F
CUY CO. ARPT   MOCLDY    81  70  69 S14       30.02F
LORAIN-ELYRIA  CLOUDY    78  68  71 S15G24    30.00F
ASHTABULA      CLOUDY    77  67  71 S8        30.05F
AKRON-CANTON   MOCLDY    77  67  71 S15       30.07F
WOOSTER        MOCLDY    75  68  78 S10       30.06F
MANSFIELD      MOCLDY    77  70  79 S18       30.04F
YOUNGSTOWN     CLOUDY    77  65  66 S7        30.08F
$$

OHZ042-051>053-060>062-070>072-077>081-250400-
  SOUTHWEST OHIO

CITY           SKY/WX    TMP DP  RH WIND       PRES   REMARKS
CINC-COVINGTON CLOUDY    80  73  79 SW8       30.08S
CINC-LUNKEN    CLOUDY    81  73  76 SW12      30.06S
HAMILTON       CLOUDY    82  72  71 SW7       30.06R
DAYTON         MOCLDY    77  73  87 SW12      30.06R
WRIGHT-PAT AFB MOCLDY    77  74  91 S5        30.05R
DAYTON GENERAL CLOUDY    77  72  84 S8        30.05S
WILMINGTON     CLOUDY    75  72  90 S8        30.07S
$$

OHZ036-037-039>041-045>050-054>059-063>069-073>076-082>088-250400-
  CENTRAL AND SOUTHEAST OHIO

CITY           SKY/WX    TMP DP  RH WIND       PRES   REMARKS
COLUMBUS       CLOUDY    78  70  76 S8        30.06S
OSU AIRPORT    LGT RAIN  79  72  79 S10       30.05F
BOLTON FIELD   NOT AVBL
RICKENBACK AFB CLOUDY    76  71  82 S12       30.06S
NEWARK         MOCLDY    77  71  82 S7        30.07S
MARION         CLOUDY    77  70  79 S15       30.02F
LANCASTER      CLOUDY    78  70  76 S8        30.09R
ZANESVILLE     MOCLDY    77  69  76 S9        30.09F
NEW PHILLY     CLOUDY    79  68  69 S6        30.09S
$$




USA.gov is the U.S. government's official web portal to all federal, state and local government web resources and services.